Погода в Арраял-ду-Кабу

Бразилия     22°58′06″S   42°01′38″W
темп.,
°C
ветер,
м/с
пор.,
м/с
влажн.,
%
обл.,
%
осадки,
мм/ч
давл.,
гПа
погр.,
м
27 февраля, сб
сб2700:00+24сз4485100 2.1 1015275
03:00+23ююз3388100 3.4 1014226
06:00+24юв2384100 0.3 1014302
09:00+25всв3584100 0.3 1016421
12:00+26всв5784100 0.1 1015416
15:00+26всв6882100 0.1 1014369
18:00+26в6984100 0.0 1013406
21:00+26св91285100 0.0 1015544
28 февраля, вс
вс2800:00+25св81188100 0.1 1015643
03:00+25св81187100 0.1 1013700
06:00+25св81184100 0.0 1014614
09:00+25св81184100 0.0 1015651
12:00+25св91183100 0.0 1015600
15:00+26всв91282100 0.0 1013421
18:00+26всв101383100 0.0 1013516
21:00+25св81085100 0.1 1014504
1 марта, пн
пн100:00+25св8118597 0.0 1014720
03:00+25св8108592 0.0 1013713
06:00+25св9118385 0.0 1013630
09:00+25св9118474 0.0 1014624
12:00+25св9118376 0.0 1014568
15:00+26всв9128374 0.0 1012396
18:00+26всв11148163 0.0 1012424
21:00+25св10138652 0.0 1014656
2 марта, вт
вт200:00+25св10138798 0.0 1014709
03:00+25св10138776 0.0 1013723
06:00+25св11148596 0.0 1014718
09:00+25св11138298 0.0 1015578
12:00+25св11138099 0.0 1015440
15:00+26св10138097 0.0 1013355
18:00+26св12158299 0.0 1012384
21:00+25св12168299 0.0 1014540
3 марта, ср
ср300:00+25св11158597 0.0 1015585
03:00+25св11158697 0.0 1014564
06:00+25ссв11148591 0.0 1015535
09:00+25ссв8108595 0.0 1016362
12:00+26св678325 0.0 1015176
15:00+26всв578357 0.1 1014127
18:00+26всв688460 1.3 1013164
21:00+25ссв7108480 2.8 1015283